Location: Potomac
(46.8816°N, 113.5795°W)
Time: 11:00:26
(UTC+00:00)

Gurwin Techsat 1B - Pass Details

Date: 07 July 2022
Orbit: 812 x 813 km, 98.8° (Epoch: 10 August)

Event Time Altitude Azimuth Distance (km) Brightness Sun altitude
Rises 09:47:29 0° 19° (NNE) 3,346 13.5 -14.8°
Reaches altitude 10° 09:49:55 10° 24° (NNE) 2,410 12.5 -14.6°
Maximum altitude 09:55:05 50° 100° (E) 1,032 9.3 -14.1°
Enters shadow 09:59:55 12° 174° (S) 2,282 10.5 -13.6°
